EW8073 Weather Reports


time (UTC)temp
C
wind
direction
speed
KPH
gust
KPH
rain 1hr
cm
rain 24hr
cm
rain mn
cm
humidity
%
barometer
mb
20260509200820 25 54 1.6 8.0 0.00 0.00 0.00 22 1012.2
20260509200313 25 57 3.2 11.3 0.00 0.00 0.00 23 1012.4
20260509195808 25 66 3.2 12.9 0.00 0.00 0.00 23 1012.5
20260509195302 25 47 1.6 12.9 0.00 0.00 0.00 22 1012.3
20260509194756 24 350 1.6 9.7 0.00 0.00 0.00 23 1012.3
20260509194249 24 81 3.2 11.3 0.00 0.00 0.00 23 1012.3
20260509193743 25 83 3.2 12.9 0.00 0.00 0.00 23 1012.3
20260509192226 24 46 3.2 12.9 0.00 0.00 0.00 24 1012.4
20260509191725 24 58 3.2 12.9 0.00 0.00 0.00 22 1012.5
20260509191256 24 73 1.6 11.3 0.00 0.00 0.00 23 1012.4
20260509190726 24 71 1.6 6.4 0.00 0.00 0.00 23 1012.5
20260509190225 24 294 1.6 9.7 0.00 0.00 0.00 23 1012.5
20260509184726 23 72 3.2 14.5 0.00 0.00 0.00 25 1012.6
20260509184224 23 53 3.2 17.7 0.00 0.00 0.00 25 1012.6
20260509183723 23 64 3.2 17.7 0.00 0.00 0.00 25 1012.7
20260509182723 23 199 3.2 14.5 0.00 0.00 0.00 25 1012.7
20260509181722 23 86 1.6 12.9 0.00 0.00 0.00 27 1012.7
20260509181220 23 77 3.2 14.5 0.00 0.00 0.00 26 1012.9
20260509180219 23 304 3.2 11.3 0.00 0.00 0.00 27 1012.7
20260509175718 23 45 3.2 11.3 0.00 0.00 0.00 26 1012.9
20260509175218 23 355 4.8 14.5 0.00 0.00 0.00 28 1012.9
20260509174717 22 77 4.8 14.5 0.00 0.00 0.00 27 1012.7
20260509174218 22 94 4.8 11.3 0.00 0.00 0.00 27 1012.9
20260509173218 22 30 3.2 14.5 0.00 0.00 0.00 28 1012.7
20260509172718 22 79 4.8 14.5 0.00 0.00 0.00 29 1012.7
20260509171717 22 117 6.4 20.9 0.00 0.00 0.00 30 1012.6
20260509171218 22 104 4.8 16.1 0.00 0.00 0.00 30 1012.7
20260509170719 22 95 4.8 16.1 0.00 0.00 0.00 30 1012.7
20260509165717 22 114 3.2 8.0 0.00 0.00 0.00 24 1012.6
20260509165218 22 346 4.8 12.9 0.00 0.00 0.00 24 1012.6
20260509164718 22 350 3.2 12.9 0.00 0.00 0.00 24 1012.6
20260509163720 22 0 0.0 3.2 0.00 0.00 0.00 26 1012.7
20260509163215 22 62 0.0 0.0 0.00 0.00 0.00 26 1012.6
20260509162708 21 57 0.0 0.0 0.00 0.00 0.00 25 1012.6
20260509161657 21 325 0.0 0.0 0.00 0.00 0.00 25 1012.6
20260509161150 21 325 0.0 0.0 0.00 0.00 0.00 27 1012.6
20260509160647 21 325 0.0 0.0 0.00 0.00 0.00 27 1012.6
20260509160146 20 325 0.0 0.0 0.00 0.00 0.00 27 1012.6
20260509155643 20 325 0.0 0.0 0.00 0.00 0.00 29 1012.5
20260509155143 20 325 0.0 0.0 0.00 0.00 0.00 29 1012.5
20260509154642 20 230 0.0 0.0 0.00 0.00 0.00 31 1012.5
20260509153639 19 229 0.0 0.0 0.00 0.00 0.00 32 1012.7
20260509151640 18 225 0.0 0.0 0.00 0.00 0.00 33 1013.0
20260509151137 18 223 0.0 0.0 0.00 0.00 0.00 35 1013.0
20260509150635 18 221 0.0 0.0 0.00 0.00 0.00 34 1013.0
20260509150135 17 213 0.0 0.0 0.00 0.00 0.00 37 1012.9
20260509145635 17 213 0.0 0.0 0.00 0.00 0.00 38 1013.0
20260509145136 17 212 0.0 0.0 0.00 0.00 0.00 41 1013.0
20260509144636 16 211 0.0 0.0 0.00 0.00 0.00 43 1013.0
20260509144135 16 211 0.0 0.0 0.00 0.00 0.00 46 1013.0
20260509143636 15 211 0.0 0.0 0.00 0.00 0.00 49 1013.0
20260509143137 15 211 0.0 0.0 0.00 0.00 0.00 54 1013.0
20260509142635 15 211 0.0 0.0 0.00 0.00 0.00 58 1012.9
20260509142136 13 211 0.0 0.0 0.00 0.00 0.00 60 1012.7
20260509141635 12 211 0.0 0.0 0.00 0.00 0.00 63 1012.9
20260509141136 12 211 0.0 0.0 0.00 0.00 0.00 63 1012.7
20260509140636 12 211 0.0 0.0 0.00 0.00 0.00 64 1012.9
20260509140135 12 211 0.0 0.0 0.00 0.00 0.00 64 1012.7
20260509135635 11 211 0.0 0.0 0.00 0.00 0.00 65 1012.9
20260509135135 11 211 0.0 0.0 0.00 0.00 0.00 64 1012.9
20260509134636 11 211 0.0 0.0 0.00 0.00 0.00 64 1012.6
20260509134128 11 211 0.0 0.0 0.00 0.00 0.00 64 1012.6
20260509133623 11 211 0.0 0.0 0.00 0.00 0.00 64 1012.6
20260509133116 10 211 0.0 0.0 0.00 0.00 0.00 64 1012.6
20260509132611 10 211 0.0 0.0 0.00 0.00 0.00 64 1012.6
20260509132103 10 211 0.0 0.0 0.00 0.00 0.00 64 1012.5
20260509131050 10 211 0.0 0.0 0.00 0.00 0.00 64 1012.3
20260509130544 10 211 0.0 0.0 0.00 0.00 0.00 64 1012.3
20260509130040 10 211 0.0 0.0 0.00 0.00 0.00 63 1012.0
20260509125534 10 211 0.0 0.0 0.00 0.00 0.00 63 1011.9
20260509125034 10 211 0.0 0.0 0.00 0.00 0.00 63 1011.8
20260509124531 9 211 0.0 0.0 0.00 0.00 0.00 63 1011.8
20260509123527 9 211 0.0 0.0 0.00 0.00 0.00 63 1011.7
20260509122523 9 211 0.0 0.0 0.00 0.00 0.00 64 1011.6
20260509122025 9 211 0.0 0.0 0.00 0.00 0.00 64 1011.6
20260509121521 9 211 0.0 0.0 0.00 0.00 0.00 64 1011.6
20260509121021 9 211 0.0 0.0 0.00 0.00 0.00 64 1011.6
20260509120521 9 211 0.0 0.0 0.00 0.00 0.00 64 1011.7
20260509120021 9 211 0.0 0.0 0.00 0.00 0.00 64 1011.5
20260509115521 9 211 0.0 0.0 0.00 0.00 0.00 64 1011.3
20260509115019 9 211 0.0 0.0 0.00 0.00 0.00 64 1011.2
20260509114519 9 211 0.0 0.0 0.00 0.00 0.00 64 1011.2
20260509114020 9 211 0.0 0.0 0.00 0.00 0.00 64 1011.1
20260509113519 9 211 0.0 0.0 0.00 0.00 0.00 65 1011.0
20260509113019 9 211 0.0 0.0 0.00 0.00 0.00 65 1011.1
20260509112517 9 211 0.0 0.0 0.00 0.00 0.00 65 1011.0
20260509112017 9 211 0.0 0.0 0.00 0.00 0.00 65 1011.0
20260509111510 9 211 0.0 0.0 0.00 0.00 0.00 66 1010.9
20260509111005 9 211 0.0 0.0 0.00 0.00 0.00 66 1010.9
20260509110459 9 211 0.0 0.0 0.00 0.00 0.00 66 1010.9
20260509104940 9 211 0.0 0.0 0.00 0.00 0.00 66 1010.8
20260509104434 9 211 0.0 0.0 0.00 0.00 0.00 66 1010.9
20260509103929 9 211 0.0 0.0 0.00 0.00 0.00 66 1010.9
20260509103423 10 211 0.0 0.0 0.00 0.00 0.00 66 1010.9
20260509102920 10 211 0.0 0.0 0.00 0.00 0.00 66 1010.9
20260509102410 10 211 0.0 0.0 0.00 0.00 0.00 66 1010.8
20260509101904 10 211 0.0 0.0 0.00 0.00 0.00 66 1010.8
20260509101359 10 211 0.0 0.0 0.00 0.00 0.00 65 1010.9
20260509100852 10 211 0.0 0.0 0.00 0.00 0.00 65 1011.0
20260509100348 10 211 0.0 0.0 0.00 0.00 0.00 65 1011.1
20260509095841 10 211 0.0 0.0 0.00 0.00 0.00 64 1011.1
20260509094830 10 211 0.0 0.0 0.00 0.00 0.00 64 1011.1
20260509093816 10 211 0.0 0.0 0.00 0.00 0.00 64 1010.9
20260509093310 10 211 0.0 0.0 0.00 0.00 0.00 64 1010.9
20260509092300 10 211 0.0 0.0 0.00 0.00 0.00 64 1010.9
20260509091753 11 211 0.0 0.0 0.00 0.00 0.00 64 1010.8
20260509091246 11 211 0.0 0.0 0.00 0.00 0.00 63 1010.6
20260509090740 11 211 0.0 0.0 0.00 0.00 0.00 63 1010.6
20260509090236 11 208 0.0 0.0 0.00 0.00 0.00 63 1010.6
20260509085728 11 208 0.0 0.0 0.00 0.00 0.00 63 1010.5
20260509084716 11 208 0.0 0.0 0.00 0.00 0.00 62 1010.6
20260509084210 11 208 0.0 0.0 0.00 0.00 0.00 61 1010.6
20260509083705 12 208 0.0 0.0 0.00 0.00 0.00 61 1010.6
20260509082654 12 208 0.0 0.0 0.00 0.00 0.00 60 1010.6
20260509082147 12 208 0.0 0.0 0.00 0.00 0.00 60 1010.6
20260509081640 12 208 0.0 0.0 0.00 0.00 0.00 60 1010.6
20260509081135 12 208 0.0 0.0 0.00 0.00 0.00 59 1010.5
20260509075617 12 208 0.0 0.0 0.00 0.00 0.00 59 1010.8
20260509075111 12 208 0.0 0.0 0.00 0.00 0.00 58 1010.8
20260509074605 13 208 0.0 0.0 0.00 0.00 0.00 58 1010.8
20260509074059 13 207 0.0 0.0 0.00 0.00 0.00 57 1010.9
20260509073553 13 207 0.0 0.0 0.00 0.00 0.00 57 1010.8
20260509073048 13 207 0.0 0.0 0.00 0.00 0.00 57 1010.8
20260509072540 13 207 0.0 0.0 0.00 0.00 0.00 58 1010.8
20260509072034 12 204 0.0 0.0 0.00 0.00 0.00 58 1010.8
20260509071528 12 204 0.0 0.0 0.00 0.00 0.00 58 1010.8
20260509071023 12 202 0.0 0.0 0.00 0.00 0.00 58 1010.9
20260509070021 12 139 0.0 0.0 0.00 0.00 0.00 59 1010.9
20260509065521 12 138 0.0 0.0 0.00 0.00 0.00 59 1011.0
20260509065023 12 138 0.0 0.0 0.00 0.00 0.00 59 1011.1
20260509064519 12 135 0.0 0.0 0.00 0.00 0.00 59 1011.1
20260509064017 12 135 0.0 0.0 0.00 0.00 0.00 59 1011.1
20260509063516 12 135 0.0 0.0 0.00 0.00 0.00 59 1011.2
20260509063017 12 68 0.0 0.0 0.00 0.00 0.00 59 1011.2
20260509062515 12 68 0.0 0.0 0.00 0.00 0.00 59 1011.2
20260509062014 12 67 0.0 0.0 0.00 0.00 0.00 59 1011.3
20260509061515 12 67 0.0 0.0 0.00 0.00 0.00 59 1011.5
20260509061012 12 67 0.0 0.0 0.00 0.00 0.00 58 1011.5
20260509060513 12 67 0.0 0.0 0.00 0.00 0.00 58 1011.6
20260509055505 12 67 0.0 0.0 0.00 0.00 0.00 58 1011.6
20260509054959 12 67 0.0 0.0 0.00 0.00 0.00 58 1011.6
20260509054454 12 67 0.0 0.0 0.00 0.00 0.00 58 1011.7
20260509053947 12 67 0.0 0.0 0.00 0.00 0.00 58 1011.8
20260509052934 13 67 0.0 0.0 0.00 0.00 0.00 58 1011.8
20260509051924 13 67 0.0 0.0 0.00 0.00 0.00 58 1012.0
20260509051416 13 67 0.0 0.0 0.00 0.00 0.00 58 1012.2
20260509050911 13 67 0.0 0.0 0.00 0.00 0.00 58 1012.2
20260509050405 13 67 0.0 0.0 0.00 0.00 0.00 58 1012.3
20260509045405 13 67 0.0 0.0 0.00 0.00 0.00 57 1012.3
20260509043902 13 67 0.0 0.0 0.00 0.00 0.00 55 1012.6
20260509043403 13 67 0.0 0.0 0.00 0.00 0.00 54 1012.7
20260509042903 14 67 0.0 0.0 0.00 0.00 0.00 54 1012.9
20260509042358 14 67 0.0 0.0 0.00 0.00 0.00 54 1012.9
20260509041859 14 67 0.0 0.0 0.00 0.00 0.00 53 1013.0
20260509041359 14 67 0.0 0.0 0.00 0.00 0.00 53 1013.0
20260509040858 14 67 0.0 0.0 0.00 0.00 0.00 52 1013.0
20260509040358 15 67 0.0 0.0 0.00 0.00 0.00 52 1013.0
20260509035900 15 67 0.0 0.0 0.00 0.00 0.00 51 1013.1
20260509034856 15 67 0.0 0.0 0.00 0.00 0.00 49 1013.1
20260509034356 15 67 0.0 0.0 0.00 0.00 0.00 49 1013.1
20260509033858 15 67 0.0 0.0 0.00 0.00 0.00 48 1013.1
20260509033359 15 67 0.0 0.0 0.00 0.00 0.00 48 1013.1
20260509031841 16 66 0.0 0.0 0.00 0.00 0.00 46 1013.0
20260509031335 16 66 0.0 0.0 0.00 0.00 0.00 46 1013.0
20260509030829 16 66 0.0 0.0 0.00 0.00 0.00 46 1013.0
20260509030325 16 66 0.0 0.0 0.00 0.00 0.00 45 1013.0
20260509025817 16 66 0.0 0.0 0.00 0.00 0.00 45 1012.9
20260509025312 16 66 0.0 0.0 0.00 0.00 0.00 44 1012.7
20260509024301 16 66 0.0 0.0 0.00 0.00 0.00 43 1012.7
20260509023800 17 66 0.0 0.0 0.00 0.00 0.00 43 1012.7
20260509023259 17 66 0.0 0.0 0.00 0.00 0.00 42 1012.6
20260509022259 17 65 0.0 0.0 0.00 0.00 0.00 42 1012.5
20260509021759 17 66 0.0 0.0 0.00 0.00 0.00 42 1012.5
20260509020757 18 65 0.0 0.0 0.00 0.00 0.00 41 1012.4
20260509020254 18 65 0.0 0.0 0.00 0.00 0.00 40 1012.4
20260509015251 18 65 0.0 0.0 0.00 0.00 0.00 39 1012.3
20260509014750 18 65 0.0 0.0 0.00 0.00 0.00 39 1012.3
20260509014249 18 65 0.0 0.0 0.00 0.00 0.00 39 1012.3
20260509013747 18 67 0.0 0.0 0.00 0.00 0.00 39 1012.3
20260509013245 19 67 0.0 0.0 0.00 0.00 0.00 38 1012.2
20260509012745 19 67 0.0 0.0 0.00 0.00 0.00 37 1012.2
20260509012244 19 64 0.0 0.0 0.00 0.00 0.00 38 1012.2
20260509011741 19 65 0.0 0.0 0.00 0.00 0.00 37 1012.2
20260509011240 19 65 0.0 0.0 0.00 0.00 0.00 38 1012.2
20260509010740 19 65 0.0 0.0 0.00 0.00 0.00 37 1012.2
20260509010241 20 65 0.0 0.0 0.00 0.00 0.00 37 1012.2
20260509005740 20 65 0.0 0.0 0.00 0.00 0.00 37 1012.0
20260509005244 20 64 0.0 0.0 0.00 0.00 0.00 37 1012.2
20260509004743 20 63 0.0 0.0 0.00 0.00 0.00 36 1012.0
20260509003743 20 63 0.0 0.0 0.00 0.00 0.00 36 1012.0
20260509003241 20 63 0.0 0.0 0.00 0.00 0.00 36 1012.0
20260509002240 20 61 0.0 0.0 0.00 0.00 0.00 34 1012.0
20260509001740 21 61 0.0 0.0 0.00 0.00 0.00 35 1012.0
20260509000741 21 59 0.0 0.0 0.00 0.00 0.00 34 1012.0
20260508235740 21 58 0.0 3.2 0.00 0.00 0.00 34 1012.2
20260508235240 21 58 1.6 4.8 0.00 0.00 0.00 34 1012.2
20260508234741 21 59 1.6 6.4 0.00 0.00 0.00 33 1012.2
20260508234240 21 61 1.6 8.0 0.00 0.00 0.00 33 1012.3
20260508233740 21 49 1.6 8.0 0.00 0.00 0.00 35 1012.3
20260508233240 21 79 1.6 6.4 0.00 0.00 0.00 34 1012.3
20260508232741 21 88 1.6 4.8 0.00 0.00 0.00 34 1012.3
20260508232240 22 88 1.6 4.8 0.00 0.00 0.00 35 1012.3
20260508231741 22 88 1.6 4.8 0.00 0.00 0.00 34 1012.2
20260508231238 22 89 1.6 9.7 0.00 0.00 0.00 34 1012.3
20260508224724 22 271 0.0 0.0 0.00 0.00 0.00 35 1012.2
20260508224218 22 271 0.0 0.0 0.00 0.00 0.00 34 1012.3
20260508223715 22 271 0.0 0.0 0.00 0.00 0.00 34 1012.4
20260508223214 23 281 0.0 0.0 0.00 0.00 0.00 33 1012.4
20260508222714 22 281 0.0 4.8 0.00 0.00 0.00 36 1012.4
20260508222212 22 281 1.6 6.4 0.00 0.00 0.00 35 1012.4
20260508221712 21 280 3.2 6.4 0.00 0.00 0.00 33 1012.5
20260508221211 22 280 3.2 9.7 0.00 0.00 0.00 34 1012.6
20260508220710 22 13 3.2 9.7 0.00 0.00 0.00 34 1012.6
20260508220211 22 63 3.2 8.0 0.00 0.00 0.00 35 1012.6
20260508215209 22 88 0.0 4.8 0.00 0.00 0.00 35 1012.7
20260508214708 22 62 1.6 6.4 0.00 0.00 0.00 35 1012.7
20260508213206 23 243 0.0 3.2 0.00 0.00 0.00 33 1012.7
20260508212707 23 340 0.0 3.2 0.00 0.00 0.00 33 1012.9
20260508212206 22 340 0.0 3.2 0.00 0.00 0.00 35 1013.0
20260508211706 22 338 1.6 9.7 0.00 0.00 0.00 36 1013.1
20260508211204 21 336 3.2 11.3 0.00 0.00 0.00 35 1013.1
20260508210703 21 92 1.6 11.3 0.00 0.00 0.00 38 1013.1
20260508210158 22 305 1.6 6.4 0.00 0.00 0.00 36 1013.2
20260508205652 22 225 1.6 6.4 0.00 0.00 0.00 35 1013.3
20260508205145 22 155 1.6 6.4 0.00 0.00 0.00 38 1013.3
20260508204133 21 76 3.2 8.0 0.00 0.00 0.00 38 1013.4
20260508203627 21 90 3.2 8.0 0.00 0.00 0.00 39 1013.4
20260508203121 21 79 3.2 6.4 0.00 0.00 0.00 38 1013.6
20260508202616 21 317 3.2 8.0 0.00 0.00 0.00 38 1013.6
20260508202109 21 307 1.6 8.0 0.00 0.00 0.00 37 1013.6
20260508201603 20 71 1.6 8.0 0.00 0.00 0.00 39 1013.6